Orbital Elements at Epoch 2459200.5 (2020-Dec-17.0) TDB
Reference: JPL 19 (heliocentric ecliptic J2000)
Element | Value | Uncertainty (1-sigma) | Units |
e | .08424726551865579 | 4.1116e-08 | |
a | 2.802202308716501 | 1.6568e-08 | au |
q | 2.566124426777071 | 1.1818e-07 | au |
i | 5.293644850357894 | 4.2838e-06 | deg |
node | 87.50592715281725 | 4.9796e-05 | deg |
peri | 344.6081695002172 | 5.9277e-05 | deg |
M | 352.9493826755798 | 2.9627e-05 | deg |
tp | 2459234.056163338188 (2021-Jan-19.55616334) | 0.00014096 | TDB |
period | 1713.356185125429 4.69 | 1.5195e-05 4.16e-08 | d yr |
n | .2101139290973789 | 1.8634e-09 | deg/d |
Q | 3.03828019065593 | 1.7964e-08 | au |
|
| | Orbit Determination Parameters
Additional Information
|